Aérodrome :
LOGIN :

S'inscrire | Disclaimer

   EN    FR    IT 

 










Légende :    VFR   VFR Marginal   IFR   IFR Intensif   IFR Très Intensif
Visi : 
Plafond : 
>= 8 km
>= 3000ft
5 à 8 km
1000 à 3000 ft
1500m à 5 km
500 à 1000 ft
800 à 1500m
200 à 500 ft
< 800m
< 200 ft
Symboles :   Orages  Brouillard  Fortes neiges  Fortes précipitations  Vent > 20 kt
SIGMETs :   Divers  Orages  Givrage  Turbulence  Onde Orograph.  Cendres Volcan.







- Altitude de l'aérodrome : 245 ft


ETHS - Fassberg

DERNIER METAR :
  • 250520Z 26006KT 9999 BKN007 BKN013 13/11 Q1021 GRN GRN

METARs EXPIRÉS :
  • 250420Z 29003KT 9999 FEW010 BKN014 12/11 Q1020 GRN GRN
  • 250320Z 27005KT 9999 BKN013 12/10 Q1020 GRN

TAF TAF ETHS
Valide du 25 à 05h jusqu'au 25 à 14h UTC


250418Z 2505/2514 27005KT 9999 NSW BKN013
BECMG 2508/2510 31007KT 9999 NSW BKN015
BECMG 2510/2512 33007KT 9999 NSW SCT020 BKN030
Pas de NOTAMs connus pour ce terrain.



MET'MAP, la Météo Aéronautique d'un coup d'oeil ! - Copyright ORBIFLY Décembre 2007 - Disclaimer

ORBIFLY MET'MAP TEAM :

Programmation & Développement : Alexandra Zaïnal
Conception & Développement : Baudouin d'Aumeries
Co-Programmation & Développement : Marc-Olivier Méhu
Soutien technique & logistique : Manuel Goepfert

Contact : metmap@orbifly.com




SOURCES & CREDITS :

   NOAA